Wind_Speed
33 34 34 34 34 34 34 34 34 33 34 35 36 37 38 38 39 40 39 39 39 39 40 41 41 41 41 41 40 39 39 39 38 37 35 33 31 29
34 35 35 35 36 36 35 35 35 35 34 36 36 37 37 38 39 40 40 40 41 40 40 41 41 41 42 42 42 41 40 39 39 38 36 35 33 30
36 36 36 36 36 36 37 37 37 37 36 36 37 37 37 38 39 40 41 41 42 42 42 41 41 42 42 42 42 41 40 39 39 37 36 35 34 32
37 37 37 37 37 37 37 37 38 38 38 38 38 38 38 38 38 40 40 41 42 43 43 43 42 42 42 41 42 42 40 40 39 38 36 35 34 33
38 38 38 38 38 38 38 38 38 38 38 39 39 39 39 39 39 39 40 40 41 43 43 43 43 43 43 42 42 42 41 40 40 39 38 36 35 33
38 38 38 37 37 38 38 39 39 38 39 39 39 40 39 39 40 41 41 40 41 41 42 43 43 44 43 43 43 43 43 41 39 38 38 37 36 34
38 38 38 38 37 38 38 38 38 39 39 40 40 39 40 40 41 42 42 42 41 40 41 42 42 43 44 43 43 43 43 42 41 40 38 37 36 35
36 37 37 37 37 37 38 38 39 39 40 40 41 40 40 41 41 43 43 43 43 42 42 42 42 43 44 44 43 43 43 43 42 40 40 39 38 36
36 35 35 36 36 36 37 38 39 40 40 41 41 41 41 41 42 43 44 44 43 43 43 42 42 42 43 45 44 44 44 44 43 41 40 39 39 38
35 35 34 35 35 36 36 37 38 39 40 41 42 42 43 42 42 43 44 44 44 44 44 43 42 42 43 43 44 45 45 45 45 43 41 41 41 39
34 34 34 34 36 36 36 36 37 38 39 40 40 41 42 43 43 43 44 45 45 45 45 44 44 43 43 43 44 46 46 46 46 45 43 42 42 40
34 34 34 34 35 35 36 36 36 37 39 39 39 40 41 42 43 43 44 45 45 45 46 46 45 45 44 44 44 46 46 47 48 47 45 44 43 41
34 34 34 34 33 33 34 34 35 36 38 38 39 39 40 40 41 42 43 44 45 45 46 47 46 46 45 45 45 45 45 45 46 47 47 46 44 43
33 33 33 32 32 32 32 33 34 35 36 37 37 37 38 39 40 41 43 44 45 45 46 46 45 46 46 46 46 45 45 46 47 48 48 47 46 45
33 32 32 31 31 30 30 31 31 32 33 34 34 35 37 38 40 41 42 44 45 45 45 45 43 44 46 47 46 46 46 47 48 48 49 48 48 47
32 32 31 30 30 29 29 28 28 28 29 30 31 33 35 37 38 40 41 43 43 44 43 43 43 44 44 45 46 46 47 47 47 48 47 48 49 48
31 29 29 29 28 27 27 26 25 25 26 26 28 30 32 34 35 38 40 41 43 43 43 44 44 43 43 45 46 46 47 48 48 47 47 47 49 48
29 28 28 27 26 25 24 23 23 23 23 24 25 27 28 31 33 35 38 40 42 42 42 43 44 44 43 44 44 45 45 47 48 48 48 48 48 48
28 27 26 25 24 23 22 21 20 21 21 22 24 25 27 29 31 33 35 37 39 41 42 43 44 44 44 44 43 44 44 45 47 47 48 48 48 48
26 25 25 24 23 22 21 19 18 18 19 21 22 23 25 27 29 31 33 35 36 38 40 41 42 43 44 43 44 43 44 44 45 47 49 48 48 49
26 25 23 22 22 21 20 18 17 17 17 19 20 22 23 26 28 30 31 32 34 36 37 38 40 41 43 43 43 43 43 44 45 47 49 50 48 47
25 24 23 22 21 20 18 16 15 15 15 17 18 20 22 24 26 28 30 31 33 34 34 36 38 39 41 42 42 43 44 44 45 46 48 50 48 47
24 23 22 21 19 17 15 14 13 13 14 14 15 17 19 21 24 26 29 31 32 33 33 35 36 37 39 40 41 42 43 43 44 44 46 48 49 49
Wind_Direction
287 284 281 279 276 273 271 268 265 262 259 258 255 251 248 246 243 242 241 240 240 240 239 237 235 234 234 234 234 234 234 234 234 234 233 234 236 238
288 285 282 279 276 274 271 268 265 262 260 257 256 254 249 246 245 243 241 240 240 239 239 237 236 235 234 234 233 233 233 233 233 233 232 233 235 237
288 285 281 278 276 274 271 268 265 262 260 257 256 254 251 248 245 243 241 240 239 239 238 238 237 236 233 232 232 232 231 231 231 230 232 233 233 235
289 286 282 278 275 273 271 268 265 262 259 257 255 254 251 248 246 243 241 239 239 239 239 237 237 236 233 232 230 230 230 229 229 230 231 231 232 233
291 287 283 279 276 273 271 268 265 263 260 257 254 253 251 248 246 244 242 240 239 238 238 237 236 234 232 231 230 229 229 229 229 229 229 230 230 229
292 287 284 280 276 273 271 268 265 263 260 258 255 253 251 249 246 244 243 241 239 238 236 235 234 233 231 230 229 228 228 228 227 227 227 227 227 227
292 288 284 280 277 274 271 268 265 262 260 258 255 253 250 248 246 244 243 241 239 238 236 234 234 233 229 228 228 229 227 226 224 224 224 223 224 224
295 290 286 282 278 275 271 267 264 262 260 257 255 253 251 249 246 244 243 241 239 237 236 235 233 232 229 227 226 226 224 222 221 221 221 222 222 222
297 292 287 283 280 276 272 268 265 263 260 257 255 253 251 249 246 243 241 239 238 236 235 235 234 231 230 229 226 224 223 221 220 220 221 220 220 219
297 294 290 285 281 277 273 269 266 263 261 258 255 252 250 248 246 243 240 238 236 234 233 233 232 230 229 228 225 224 223 221 220 219 220 220 219 217
299 296 292 288 284 279 275 271 267 263 260 258 255 252 249 246 244 241 239 237 234 232 231 230 230 229 229 229 226 223 222 222 220 219 218 218 218 218
300 298 294 290 286 281 276 272 267 263 260 257 254 251 247 245 242 240 237 236 233 231 229 228 228 228 227 228 226 223 222 222 219 219 218 217 217 217
302 299 297 293 288 283 278 273 269 264 261 258 255 250 246 243 240 237 235 234 232 230 229 228 227 228 227 227 226 224 223 222 220 218 218 217 216 216
305 302 299 295 291 285 280 276 271 266 261 257 253 248 244 240 237 234 233 231 230 229 228 229 229 228 227 226 226 224 223 222 222 220 219 217 216 215
306 304 302 298 294 289 284 279 273 268 261 255 251 246 241 237 235 233 231 230 229 229 230 228 227 226 226 225 226 224 223 222 221 220 220 218 216 215
308 306 305 302 298 293 289 283 275 268 261 254 249 244 239 237 234 232 230 229 228 227 227 226 224 223 224 224 226 225 223 222 220 219 218 219 217 215
308 307 307 305 302 297 292 285 276 270 261 254 248 243 239 236 233 231 229 227 226 225 225 224 222 221 223 222 223 224 224 222 220 219 219 219 218 216
309 308 307 307 305 301 295 288 280 271 262 254 248 242 239 235 232 229 228 227 225 223 222 222 221 221 221 220 220 221 222 222 220 220 219 218 217 218
309 309 308 308 307 304 299 291 282 272 260 252 248 244 240 235 230 228 226 225 224 222 222 221 220 222 221 220 219 219 219 220 220 219 218 218 218 218
310 310 309 309 309 306 300 292 283 272 261 253 248 243 238 232 228 225 224 223 222 221 221 221 220 221 220 219 219 218 218 219 219 219 218 218 218 219
311 311 309 308 308 306 300 291 281 271 263 255 249 242 236 230 225 222 222 222 220 218 219 219 218 219 218 218 218 217 219 220 220 219 218 218 218 219
311 310 308 306 306 306 300 290 280 272 266 258 249 241 234 228 223 220 219 219 218 218 217 217 217 217 216 217 217 218 219 220 219 220 220 218 218 219
312 310 307 305 303 302 300 291 282 274 266 256 244 236 230 226 222 219 218 216 216 217 217 216 215 215 215 215 216 217 218 219 220 221 221 220 219 217
Height
5777 5776 5775 5774 5774 5774 5775 5775 5777 5778 5780 5781 5783 5786 5790 5793 5796 5800 5804 5808 5813 5817 5821 5826 5831 5836 5841 5846 5850 5855 5860 5865 5870 5874 5879 5883 5886 5890
5768 5766 5765 5764 5764 5764 5764 5765 5766 5768 5770 5771 5773 5776 5779 5783 5786 5790 5794 5798 5803 5807 5812 5816 5821 5826 5831 5836 5842 5847 5852 5857 5862 5867 5871 5876 5880 5884
5758 5756 5755 5754 5753 5753 5753 5754 5755 5757 5759 5761 5763 5765 5769 5772 5776 5779 5784 5788 5793 5797 5802 5807 5812 5817 5822 5827 5833 5838 5843 5849 5854 5859 5864 5869 5873 5877
5747 5745 5744 5743 5742 5742 5742 5743 5744 5745 5747 5750 5752 5755 5758 5761 5765 5769 5773 5777 5782 5787 5792 5797 5802 5807 5812 5818 5823 5829 5835 5840 5846 5851 5856 5861 5866 5871
5736 5734 5732 5731 5730 5730 5730 5731 5732 5733 5735 5738 5741 5743 5747 5750 5754 5758 5762 5767 5772 5777 5781 5786 5792 5797 5803 5808 5814 5820 5826 5832 5838 5843 5849 5854 5859 5864
5725 5722 5720 5719 5718 5718 5718 5718 5720 5721 5723 5726 5729 5732 5735 5738 5742 5746 5751 5756 5761 5766 5771 5776 5781 5787 5793 5799 5805 5811 5817 5823 5829 5835 5840 5846 5852 5856
5713 5711 5709 5707 5706 5706 5706 5706 5707 5708 5710 5713 5716 5719 5723 5726 5730 5734 5739 5745 5750 5755 5760 5766 5771 5777 5782 5789 5795 5802 5808 5814 5820 5826 5832 5838 5844 5849
5702 5699 5697 5695 5694 5694 5693 5693 5694 5696 5698 5700 5703 5707 5710 5714 5718 5722 5727 5733 5739 5745 5750 5755 5761 5766 5773 5779 5785 5792 5798 5805 5812 5818 5824 5830 5836 5842
5691 5688 5686 5684 5682 5682 5681 5681 5682 5683 5685 5687 5690 5694 5697 5701 5706 5710 5715 5720 5727 5733 5739 5745 5751 5757 5763 5769 5775 5782 5789 5796 5802 5809 5815 5822 5828 5834
5680 5677 5674 5672 5670 5669 5669 5669 5669 5670 5671 5674 5677 5680 5683 5687 5692 5698 5703 5709 5716 5722 5728 5734 5740 5747 5753 5759 5765 5772 5779 5786 5793 5800 5807 5814 5820 5826
5670 5666 5663 5661 5659 5657 5656 5656 5656 5656 5657 5660 5663 5666 5670 5674 5679 5685 5690 5697 5704 5710 5717 5723 5730 5736 5743 5749 5755 5762 5769 5776 5784 5791 5798 5805 5812 5819
5660 5656 5652 5650 5647 5645 5644 5643 5643 5643 5644 5647 5649 5653 5656 5661 5666 5672 5678 5685 5692 5699 5705 5712 5719 5725 5733 5739 5746 5753 5760 5767 5774 5782 5789 5797 5804 5811
5650 5646 5642 5639 5636 5633 5632 5631 5630 5630 5631 5633 5636 5640 5644 5648 5654 5659 5666 5672 5680 5687 5694 5700 5707 5714 5721 5729 5736 5743 5750 5758 5765 5773 5780 5788 5795 5803
5640 5636 5632 5628 5625 5622 5620 5619 5618 5617 5618 5620 5623 5627 5631 5636 5641 5647 5653 5660 5667 5675 5681 5689 5696 5703 5711 5718 5726 5734 5741 5748 5756 5764 5771 5779 5786 5794
5631 5627 5622 5618 5615 5612 5609 5607 5606 5605 5606 5608 5611 5615 5619 5624 5629 5635 5641 5648 5655 5662 5670 5678 5685 5692 5700 5708 5716 5724 5731 5738 5746 5754 5762 5770 5778 5786
5622 5618 5613 5609 5605 5602 5599 5597 5595 5594 5595 5597 5599 5603 5607 5612 5618 5624 5630 5636 5643 5651 5659 5667 5674 5681 5689 5697 5705 5713 5721 5729 5737 5745 5752 5761 5769 5777
5614 5609 5605 5601 5596 5593 5590 5588 5586 5586 5586 5587 5590 5593 5597 5602 5608 5613 5619 5625 5633 5640 5648 5656 5663 5671 5678 5686 5694 5703 5711 5719 5727 5735 5743 5751 5759 5768
5606 5602 5597 5593 5589 5585 5582 5579 5578 5578 5578 5579 5582 5585 5588 5593 5598 5603 5609 5615 5623 5630 5638 5645 5653 5661 5669 5676 5684 5693 5701 5709 5717 5725 5733 5742 5750 5758
5598 5594 5590 5586 5582 5578 5575 5573 5571 5571 5571 5572 5575 5578 5581 5585 5589 5594 5600 5606 5613 5621 5628 5636 5643 5651 5660 5668 5676 5683 5691 5699 5707 5715 5724 5732 5741 5749
5592 5588 5584 5580 5576 5572 5569 5567 5565 5565 5565 5566 5568 5570 5573 5577 5581 5587 5592 5598 5605 5612 5619 5627 5635 5643 5651 5659 5666 5674 5682 5690 5698 5706 5714 5722 5730 5738
5585 5581 5577 5574 5570 5567 5564 5561 5560 5559 5559 5560 5561 5564 5567 5570 5575 5580 5585 5591 5597 5604 5611 5619 5626 5634 5641 5649 5657 5665 5673 5680 5688 5696 5704 5713 5721 5729
5579 5575 5571 5568 5565 5562 5559 5556 5555 5555 5554 5555 5556 5558 5561 5565 5569 5574 5579 5585 5591 5597 5604 5611 5618 5625 5633 5641 5649 5657 5664 5671 5679 5686 5694 5703 5712 5721
5573 5569 5566 5563 5560 5557 5554 5552 5551 5550 5550 5550 5551 5554 5556 5560 5564 5568 5573 5579 5585 5591 5598 5604 5611 5618 5626 5633 5641 5648 5656 5663 5670 5677 5686 5694 5702 5710